Location: Gombori
(14.9797°N, 2.9419°W)
Time: 13:53:17
(UTC+00:00)

CSL-04 Deb - Visible Passes

Search period start: 26 September 2022 00:00
Search period end: 06 October 2022 00:00
Orbit: 604 x 618 km, 98.7° (Epoch: 25 September)

Date Brightness Start Highest point End Pass type
(mag) Time Alt. Az. Time Alt. Az. Time Alt. Az.
26 Sep ? 18:43:04 10° S 18:47:17 66° WSW 18:51:29 10° NNW visible
27 Sep ? 18:57:50 10° S 19:01:50 40° WSW 19:05:50 10° NNW visible
28 Sep ? 19:12:51 10° SSW 19:16:24 26° W 19:19:56 10° NW visible
29 Sep ? 19:28:14 10° SW 19:30:57 17° W 19:33:41 10° WNW visible
30 Sep ? 19:44:46 10° WSW 19:45:31 10° W 19:46:15 10° W visible
01 Oct ? 18:20:10 10° SSE 18:24:17 51° ENE 18:28:23 10° N visible
02 Oct ? 18:34:31 10° SSE 18:38:45 84° ENE 18:43:00 10° N visible
03 Oct ? 18:49:04 10° S 18:53:14 60° WSW 18:57:25 10° NNW visible
04 Oct ? 19:03:49 10° S 19:07:44 37° W 19:11:39 10° NNW visible
05 Oct ? 19:18:48 10° SSW 19:22:13 24° W 19:25:38 10° NW visible
